Location: Ardick
(31.4613°N, 81.4334°W)
Time: 21:41:21
(UTC+00:00)

X-37B - Pass Details

Date: 24 September 2021
Orbit: 385 x 389 km, 45.0° (Epoch: 13 October)

Event Time Altitude Azimuth Distance (km) Brightness Sun altitude
Exits shadow 09:13:29 13° 24° (NNE) 1,267 3.6 -26.5°
Drops below altitude 10° 09:13:55 10° 30° (NNE) 1,411 4.0 -26.4°
Sets 09:16:16 0° 45° (NE) 2,268 5.4 -25.9°
